Temperature
20 20 20 20 19 18 19 19 20 19 18 19 18 17 16 16 15 15 15 14 14 13 13 13 12 12 12 11 11 11 11 11 11 11 11 11 12 12 12 12 12 12 12 13
20 19 19 19 19 19 19 19 19 18 18 19 17 17 16 16 15 15 15 14 14 14 13 13 13 12 12 11 11 11 11 11 11 11 11 11 11 12 12 12 12 12 12 12
21 19 20 21 21 20 19 19 19 19 20 19 18 17 17 16 15 15 14 14 14 13 13 13 13 12 12 12 11 11 11 11 11 11 11 11 11 11 11 12 12 12 12 12
21 20 20 22 20 20 20 20 20 19 19 18 18 17 16 15 15 15 14 14 13 13 13 13 13 12 12 12 11 11 11 11 11 11 11 11 11 11 11 11 11 11 12 12
22 22 22 21 20 20 20 20 20 20 19 18 17 16 16 15 15 14 14 13 13 13 13 13 13 12 12 12 12 11 11 11 11 11 11 11 11 11 11 11 11 11 11 12
21 21 22 22 21 19 20 20 20 19 19 18 17 18 18 16 15 14 14 13 13 13 13 13 13 12 12 12 12 11 11 11 11 11 11 11 11 11 11 11 11 11 11 11
21 22 23 22 19 18 20 22 20 19 18 18 18 19 17 15 14 14 14 14 13 13 13 13 13 12 12 12 11 11 11 11 11 11 11 11 11 11 10 10 10 11 11 11
21 22 23 19 19 20 22 20 19 19 18 17 17 16 15 15 14 14 14 14 14 13 13 13 13 12 12 12 11 11 11 11 11 11 11 10 11 10 10 10 10 10 11 11
22 23 21 19 20 20 19 19 18 18 18 17 16 16 15 15 14 14 14 14 14 13 13 13 13 12 12 12 11 11 11 11 11 10 11 11 10 10 10 10 10 10 10 10
21 22 20 18 18 18 18 18 18 17 17 16 16 16 15 15 15 14 14 14 14 13 13 13 13 13 12 12 12 11 11 11 11 10 10 10 10 10 10 10 10 10 10 10
22 22 19 18 18 18 17 17 17 17 16 16 16 16 15 15 15 14 14 14 14 14 13 13 13 13 12 12 12 11 11 11 11 11 10 10 10 10 10 10 10 10 10 10
23 23 22 22 20 19 18 17 17 17 16 16 16 15 15 15 14 14 14 14 14 14 13 13 13 13 12 12 12 11 11 11 11 11 10 10 10 10 10 10 10 10 10 10
23 21 21 20 20 19 18 18 17 17 16 16 15 15 15 15 14 14 14 14 14 13 13 13 13 13 13 12 12 12 11 11 11 11 10 10 10 10 10 10 10 10 10 10
20 20 19 19 19 19 18 17 17 17 16 16 15 15 15 14 14 14 14 14 14 14 13 13 13 13 13 13 12 12 12 11 11 11 11 10 10 10 10 10 10 9 10 10
20 20 20 19 19 19 18 17 16 16 16 15 15 15 14 14 14 14 14 14 14 13 13 13 13 13 13 13 12 12 12 11 11 11 11 10 10 10 10 10 10 10 9 10
20 19 19 18 19 19 18 17 16 16 16 15 15 15 14 14 14 14 14 14 13 13 13 13 13 13 13 13 12 12 12 12 11 11 11 11 11 10 10 10 10 10 10 10
19 18 18 18 18 18 18 18 17 17 16 15 15 15 14 14 14 14 14 14 13 13 13 13 13 13 13 13 12 12 12 12 12 11 11 11 11 11 10 10 10 10 10 10
21 21 21 21 20 19 19 18 17 17 16 16 15 15 14 14 14 14 14 13 13 13 13 13 13 13 13 13 13 12 12 12 12 11 11 11 11 11 11 10 10 10 10 10
20 20 20 20 20 19 19 19 18 17 16 16 15 15 14 14 14 14 14 13 13 13 13 13 13 13 13 13 13 12 12 12 12 12 12 11 11 11 11 11 10 10 10 10
18 19 19 20 20 19 19 18 18 17 16 16 15 15 14 14 14 14 14 14 14 14 13 13 13 13 13 13 13 12 12 12 12 12 12 12 11 11 11 11 11 11 10 10
17 18 18 19 19 19 19 18 18 17 16 16 15 15 15 14 14 14 14 14 14 14 13 13 13 13 13 12 13 12 12 12 12 12 12 12 12 11 11 11 11 11 11 11
15 16 17 17 18 18 18 18 18 17 16 16 15 15 15 14 14 14 14 14 14 14 14 13 13 13 13 13 13 12 12 12 12 12 12 12 12 12 12 11 11 11 11 11
13 14 15 16 16 17 17 17 17 17 16 16 16 15 15 15 15 14 14 15 14 14 14 14 13 13 13 13 13 12 12 12 12 12 12 12 12 12 12 12 12 11 11 11
11 13 13 14 15 15 16 17 17 16 16 16 16 15 15 15 15 15 15 14 14 14 14 14 13 13 13 13 13 12 12 12 12 12 12 12 12 12 12 12 12 12 12 11
10 10 11 12 13 14 14 15 16 16 16 16 15 15 15 15 15 15 15 14 14 14 14 14 13 13 13 13 13 12 12 12 12 12 12 12 12 12 12 12 12 12 12 12
8 9 9 10 11 11 12 13 14 15 15 15 15 15 15 15 15 15 14 14 14 14 14 14 13 13 13 13 13 13 12 12 12 12 12 12 12 12 12 12 12 12 12 12
7 7 8 8 9 10 10 11 12 12 13 13 14 14 14 14 14 14 14 14 14 14 14 13 13 13 13 13 13 13 12 12 12 12 12 12 12 12 12 12 12 12 12 12
Wind_Speed
3 3 2 3 4 6 5 3 3 1 3 2 1 2 1 2 4 5 7 9 10 10 10 11 11 12 12 12 12 12 12 12 12 12 11 11 11 11 11 10 10 9 8 8
4 3 3 5 6 7 6 5 5 4 4 2 2 2 2 1 3 5 6 8 9 10 10 10 11 11 11 11 11 11 11 12 11 11 11 11 11 11 11 11 10 9 9 9
3 3 4 7 9 10 7 7 7 6 3 5 5 4 3 1 2 3 5 7 8 9 9 10 10 10 11 11 10 11 11 11 11 11 11 11 11 11 11 10 10 10 10 9
2 4 5 2 3 6 7 8 9 6 5 7 5 4 3 2 2 2 4 6 7 8 8 9 9 9 9 9 10 10 11 11 11 11 11 11 11 11 11 10 10 9 10 10
3 4 4 3 6 7 7 7 11 11 9 8 6 5 5 4 2 2 3 4 5 6 6 7 8 9 9 9 10 10 10 11 11 11 10 11 11 10 10 10 10 9 9 10
4 4 3 3 7 7 5 6 10 13 12 11 10 7 5 5 3 1 1 3 4 4 5 6 7 7 8 9 10 10 9 9 9 9 10 10 10 9 9 8 9 9 10 10
6 5 4 5 9 9 6 1 10 14 14 14 12 4 5 6 4 2 0 1 3 3 4 5 6 6 7 8 9 8 7 8 8 9 9 9 9 9 8 8 8 9 10 10
5 5 3 11 11 9 3 4 9 13 14 14 10 6 7 6 5 3 2 0 2 2 3 3 4 5 6 7 6 6 6 6 7 8 8 8 9 9 9 9 9 9 9 9
6 3 2 13 9 6 3 6 9 12 13 13 12 10 9 8 6 4 2 1 1 2 2 2 3 4 5 5 4 4 5 6 6 7 7 8 8 9 8 8 8 8 8 8
6 8 8 12 11 8 7 7 9 11 13 14 13 11 10 8 7 5 3 2 1 1 1 2 2 3 3 3 2 3 4 5 5 6 7 7 7 7 8 8 8 7 7 7
8 6 5 10 15 14 11 9 9 11 13 14 13 12 11 9 7 6 4 3 2 1 1 1 1 2 2 2 2 2 3 4 4 4 5 6 6 6 7 8 7 7 6 6
6 6 7 5 11 16 15 14 14 14 13 13 12 12 11 9 8 6 5 4 3 2 2 1 1 1 1 1 2 2 2 2 3 3 3 3 4 5 7 6 8 9 9 8
3 3 4 2 7 15 17 16 15 15 15 14 13 12 11 9 8 7 6 5 4 3 2 2 1 1 0 1 1 1 1 1 1 1 2 2 3 3 3 4 6 8 9 10
7 5 6 7 8 13 15 15 15 15 14 14 13 12 11 10 9 9 8 6 5 4 3 3 2 2 1 1 2 2 1 1 1 0 1 1 2 2 3 3 3 4 6 8
13 12 7 5 8 12 13 14 15 15 15 14 13 13 12 11 11 10 8 6 6 5 5 4 4 3 1 2 2 2 2 2 1 1 1 0 0 1 1 2 2 3 3 4
12 13 10 9 11 14 16 17 17 17 16 16 15 14 13 12 10 9 8 7 7 7 5 5 4 3 3 3 3 3 2 1 3 2 2 2 1 1 1 1 1 1 2 2
11 13 15 16 15 17 18 19 18 17 17 17 16 15 13 12 11 10 9 9 8 7 6 6 5 4 4 4 4 4 3 4 5 4 3 2 2 2 1 1 1 0 1 2
16 15 16 17 17 17 18 18 18 17 17 17 16 15 14 14 13 12 11 10 9 8 8 7 6 6 5 5 4 4 4 4 4 4 4 4 3 3 3 3 2 2 1 2
16 15 15 15 15 16 17 18 18 17 17 16 16 16 16 15 13 12 10 10 10 10 8 8 7 7 7 5 4 5 5 5 5 5 5 4 5 5 4 4 4 4 3 3
14 15 15 14 14 14 15 16 16 16 16 16 17 16 16 15 14 12 11 11 10 8 7 6 8 8 7 6 6 5 5 6 6 5 5 5 6 6 6 5 5 5 5 5
11 13 14 14 14 14 13 14 15 16 17 17 17 17 16 15 14 12 11 11 10 10 9 8 8 7 7 6 7 6 6 6 6 6 6 6 6 6 7 7 6 6 6 5
9 10 12 13 13 13 12 13 14 16 16 17 17 17 16 15 14 13 13 10 8 9 8 8 8 8 8 7 6 6 6 6 6 6 6 6 7 7 7 7 7 7 7 7
8 8 9 11 13 12 12 12 14 14 16 16 17 17 16 13 12 11 11 10 9 10 9 8 8 10 10 9 7 7 7 7 7 7 7 7 7 7 7 8 7 7 7 7
9 7 5 6 8 9 11 11 11 11 13 13 14 15 14 12 10 10 9 8 10 11 9 9 11 12 12 9 8 8 8 8 7 7 7 7 7 8 8 8 8 8 8 9
11 9 6 3 2 4 5 6 8 9 10 9 11 12 11 9 9 8 8 9 10 10 8 9 13 13 11 10 10 9 9 8 8 7 7 8 8 8 8 8 8 8 8 8
12 10 8 7 6 4 1 2 3 5 6 7 7 7 7 7 8 7 6 8 10 10 9 7 9 10 11 10 10 10 9 8 8 9 9 8 9 9 8 8 10 9 9 9
11 10 8 8 8 7 5 3 1 0 2 4 4 5 5 6 6 7 7 7 7 8 8 8 8 9 9 9 10 10 9 9 9 9 9 9 8 8 8 10 9 8 8 8
Wind_Direction
94 108 162 191 198 207 234 269 270 250 255 270 231 251 304 329 346 354 0 2 2 2 3 2 5 5 5 4 5 6 11 13 12 10 13 17 20 21 26 27 30 31 35 40
161 174 219 237 225 220 230 235 236 242 242 190 190 216 239 293 346 351 357 359 360 1 1 1 4 2 2 4 5 8 15 15 11 12 16 19 22 26 30 29 29 30 33 38
191 185 245 249 221 211 214 213 216 223 197 170 197 207 221 258 317 341 351 352 355 357 359 359 1 360 2 4 5 11 18 20 16 16 20 20 21 27 30 31 32 35 34 35
205 207 239 112 129 199 218 223 218 220 188 188 196 194 212 243 283 329 347 346 352 353 357 356 359 1 2 9 13 15 19 22 21 20 22 22 23 24 27 32 34 35 36 36
229 245 257 197 192 194 212 234 213 209 198 188 180 198 207 202 230 301 333 337 342 343 347 353 2 0 3 14 19 21 20 20 21 21 22 23 25 24 25 31 36 40 42 41
229 253 250 152 156 173 209 242 195 197 193 184 185 206 179 167 185 219 314 332 338 339 351 2 5 1 8 17 20 22 19 19 21 22 24 25 25 24 27 33 39 47 49 45
235 252 258 143 149 164 211 248 168 188 188 186 196 201 135 155 172 184 224 333 336 345 1 6 2 2 16 22 23 18 17 23 26 26 29 28 27 28 30 36 41 49 53 49
215 234 242 149 162 198 232 121 170 185 187 189 191 168 160 169 172 179 190 286 342 350 8 11 5 4 21 26 21 21 25 30 31 30 29 29 33 32 34 35 40 44 48 50
222 254 76 178 193 204 191 184 184 187 187 187 186 183 183 183 183 183 192 204 320 331 353 17 15 4 16 26 20 25 33 37 35 34 35 32 31 34 36 37 37 39 42 45
250 253 227 210 215 207 203 200 188 187 184 186 189 188 187 189 189 188 190 198 242 299 340 18 16 6 9 12 8 21 35 38 40 36 38 39 34 34 36 32 32 37 40 41
244 249 226 222 216 209 200 196 185 183 185 188 190 191 191 192 193 193 190 193 214 262 314 347 358 358 9 354 335 8 34 42 47 45 40 40 47 40 37 44 31 23 31 37
234 214 205 204 199 196 193 193 189 184 185 190 193 193 194 196 194 195 196 196 210 232 260 293 319 338 12 333 305 331 24 37 42 46 43 40 48 74 71 57 54 45 34 29
240 179 195 157 179 187 191 191 189 190 189 189 194 196 195 196 195 197 201 207 217 226 246 256 265 285 317 246 273 298 342 31 42 34 37 35 35 37 63 102 103 74 54 46
209 182 193 198 189 188 191 189 189 193 193 193 192 193 195 197 197 202 208 211 216 225 235 239 242 242 250 241 241 252 241 176 229 220 349 15 35 37 39 46 63 74 78 68
210 211 216 193 182 183 185 185 188 193 193 193 191 193 196 200 203 206 208 206 212 225 232 234 236 226 209 231 237 232 223 213 211 224 239 273 69 58 62 65 62 63 75 93
206 208 213 204 193 186 186 190 194 196 195 194 195 198 200 204 206 205 204 206 216 226 228 228 232 220 209 224 231 230 223 190 241 232 223 216 206 205 143 106 75 61 59 55
195 203 207 209 204 198 197 199 201 199 197 198 199 199 199 201 204 208 208 210 220 232 232 230 229 214 214 227 236 235 228 204 204 233 230 225 221 224 209 206 209 113 71 59
223 224 213 210 204 201 202 203 204 202 201 200 198 197 199 203 208 211 210 208 215 227 232 231 225 216 218 226 234 239 233 228 223 228 226 225 224 223 222 222 222 222 202 166
234 233 226 218 212 206 203 201 202 202 200 197 197 200 204 208 212 213 208 207 216 226 227 217 203 218 219 218 227 231 235 232 228 227 228 216 223 228 226 228 227 224 220 215
244 235 228 220 211 207 204 200 198 199 198 197 199 203 206 209 210 210 208 214 221 225 218 203 202 215 220 213 210 230 233 235 234 230 228 228 228 229 228 229 231 230 227 225
256 239 227 219 210 205 203 198 195 197 196 197 201 204 207 209 207 207 208 219 223 216 214 202 213 216 217 207 203 226 231 235 235 235 233 233 235 235 234 231 230 232 232 230
274 249 232 221 212 207 202 199 197 197 196 198 202 206 208 209 205 207 213 221 220 186 197 208 214 210 203 200 215 222 229 235 237 236 236 237 238 238 237 236 235 234 234 234
299 271 244 227 218 211 201 198 198 197 197 199 201 205 208 208 205 206 215 215 213 195 202 212 205 188 190 210 220 222 227 233 237 238 238 239 239 240 240 239 238 236 236 234
335 318 285 249 224 212 205 200 198 199 200 202 205 206 207 205 208 213 221 191 189 188 207 207 197 197 204 218 221 224 230 234 237 241 243 243 243 242 241 241 240 238 237 237
358 357 355 334 248 228 219 201 193 195 197 200 203 204 207 207 208 205 204 203 192 193 208 205 204 205 211 222 223 226 229 232 235 238 240 241 242 243 244 242 240 241 239 238
5 7 8 10 7 355 331 211 194 190 191 194 195 196 199 201 206 203 201 202 202 202 210 210 205 205 216 222 225 229 233 231 228 232 238 241 243 241 243 243 243 241 242 241
357 3 7 11 13 7 2 1 1 179 190 193 190 187 190 193 196 199 202 202 201 203 209 212 212 212 216 218 222 227 231 233 234 235 237 238 241 242 242 243 243 242 241 241
Height
1567 1569 1569 1570 1572 1574 1573 1570 1570 1571 1573 1571 1573 1575 1576 1576 1576 1574 1572 1570 1567 1564 1561 1558 1554 1550 1546 1542 1538 1533 1529 1525 1521 1518 1514 1511 1508 1505 1503 1502 1500 1498 1497 1496
1569 1570 1570 1570 1570 1571 1571 1571 1570 1571 1571 1570 1573 1575 1575 1575 1575 1574 1572 1570 1568 1565 1562 1558 1555 1551 1547 1543 1540 1536 1532 1528 1524 1520 1517 1514 1511 1509 1506 1504 1502 1501 1500 1498
1564 1569 1570 1566 1561 1565 1566 1566 1567 1568 1567 1570 1572 1573 1574 1574 1574 1573 1572 1570 1568 1565 1562 1559 1556 1553 1549 1545 1541 1538 1534 1530 1526 1523 1520 1517 1514 1512 1509 1507 1505 1504 1502 1501
1563 1568 1571 1558 1558 1559 1561 1562 1563 1563 1566 1569 1570 1572 1573 1573 1573 1572 1572 1570 1568 1565 1563 1560 1557 1554 1550 1547 1543 1539 1536 1532 1529 1526 1523 1520 1517 1514 1512 1510 1508 1506 1505 1504
1561 1561 1557 1557 1557 1559 1560 1558 1558 1561 1564 1567 1570 1571 1571 1572 1572 1572 1571 1569 1567 1565 1563 1560 1558 1555 1552 1549 1545 1542 1538 1535 1532 1529 1526 1523 1520 1517 1515 1513 1511 1510 1508 1507
1562 1562 1558 1550 1552 1556 1559 1556 1553 1557 1560 1564 1568 1566 1567 1569 1570 1570 1569 1568 1566 1565 1563 1561 1558 1555 1553 1550 1547 1543 1540 1537 1534 1532 1529 1526 1523 1521 1519 1517 1515 1514 1512 1511
1559 1557 1547 1547 1553 1557 1559 1548 1550 1553 1557 1561 1563 1563 1566 1567 1569 1569 1568 1567 1566 1565 1563 1561 1558 1556 1554 1552 1548 1545 1542 1540 1537 1534 1532 1529 1527 1524 1522 1520 1519 1517 1516 1514
1554 1554 1548 1547 1551 1551 1546 1547 1549 1552 1555 1558 1561 1563 1565 1566 1567 1567 1567 1566 1565 1564 1563 1561 1559 1557 1555 1552 1550 1547 1544 1542 1539 1537 1535 1532 1530 1528 1526 1524 1522 1520 1519 1518
1544 1542 1540 1543 1543 1544 1545 1546 1548 1550 1553 1556 1559 1561 1563 1565 1566 1566 1566 1565 1565 1564 1563 1561 1559 1557 1556 1553 1551 1549 1546 1544 1541 1539 1537 1535 1533 1531 1529 1527 1525 1524 1522 1521
1541 1536 1538 1539 1540 1542 1543 1545 1546 1548 1551 1554 1557 1559 1561 1563 1564 1564 1564 1564 1563 1563 1562 1561 1559 1557 1555 1553 1551 1550 1548 1546 1544 1542 1540 1538 1536 1534 1532 1530 1528 1527 1526 1524
1535 1532 1534 1534 1534 1537 1540 1542 1544 1546 1549 1551 1554 1557 1559 1560 1562 1562 1563 1562 1562 1562 1561 1560 1558 1557 1555 1553 1552 1551 1549 1547 1546 1544 1542 1540 1538 1536 1535 1533 1531 1530 1529 1528
1527 1525 1527 1527 1528 1531 1535 1538 1541 1543 1546 1549 1551 1554 1556 1558 1559 1560 1560 1560 1560 1560 1559 1559 1557 1556 1554 1553 1552 1551 1550 1549 1547 1546 1544 1543 1541 1539 1537 1535 1534 1532 1531 1530
1523 1523 1524 1524 1525 1527 1531 1534 1538 1541 1543 1546 1548 1551 1553 1555 1556 1557 1557 1558 1558 1558 1557 1557 1556 1555 1554 1552 1551 1551 1550 1549 1548 1547 1545 1544 1543 1542 1540 1539 1537 1535 1534 1533
1519 1521 1522 1522 1523 1525 1528 1531 1535 1538 1540 1543 1545 1547 1549 1551 1553 1554 1555 1555 1555 1555 1555 1555 1554 1554 1552 1551 1551 1550 1549 1549 1548 1547 1546 1545 1544 1543 1541 1540 1540 1538 1536 1535
1514 1517 1519 1519 1521 1522 1525 1528 1530 1533 1536 1539 1541 1543 1545 1547 1549 1550 1551 1552 1552 1552 1553 1552 1552 1552 1551 1550 1549 1549 1548 1548 1547 1547 1546 1545 1544 1543 1542 1541 1541 1540 1538 1537
1509 1512 1513 1515 1516 1518 1520 1523 1525 1528 1531 1533 1536 1538 1541 1543 1545 1546 1547 1548 1549 1550 1550 1550 1549 1549 1548 1548 1548 1547 1547 1546 1546 1546 1546 1545 1545 1544 1543 1542 1542 1541 1540 1538
1505 1505 1507 1509 1511 1512 1515 1517 1520 1523 1525 1528 1531 1534 1537 1539 1540 1542 1543 1544 1545 1546 1546 1546 1546 1546 1546 1545 1545 1545 1545 1545 1545 1545 1545 1545 1544 1544 1543 1543 1542 1541 1540 1539
1498 1499 1501 1502 1504 1506 1509 1512 1515 1518 1520 1523 1527 1529 1531 1533 1535 1537 1539 1540 1541 1542 1542 1542 1543 1543 1543 1542 1542 1543 1543 1543 1543 1543 1543 1543 1543 1543 1542 1542 1541 1541 1540 1539
1491 1493 1495 1497 1499 1501 1503 1505 1508 1512 1515 1518 1521 1523 1526 1528 1531 1533 1535 1535 1536 1537 1538 1538 1539 1539 1539 1539 1539 1539 1540 1540 1540 1541 1541 1541 1540 1541 1541 1541 1540 1540 1539 1539
1484 1486 1488 1490 1492 1495 1497 1499 1502 1506 1509 1512 1515 1518 1521 1523 1525 1527 1529 1530 1531 1533 1534 1534 1535 1535 1536 1536 1536 1536 1537 1537 1537 1538 1538 1538 1538 1539 1539 1538 1538 1538 1538 1537
1478 1479 1481 1483 1486 1488 1491 1493 1496 1499 1502 1505 1508 1511 1515 1518 1520 1522 1523 1524 1526 1528 1528 1529 1530 1531 1532 1532 1532 1533 1533 1533 1534 1534 1534 1535 1535 1535 1536 1536 1536 1536 1535 1535
1474 1474 1475 1477 1479 1482 1485 1487 1490 1493 1496 1499 1502 1506 1509 1512 1514 1515 1517 1519 1521 1522 1523 1524 1525 1526 1527 1528 1528 1529 1529 1529 1530 1530 1530 1531 1531 1532 1532 1532 1532 1532 1532 1532
1471 1470 1471 1472 1474 1477 1479 1482 1484 1487 1490 1492 1496 1499 1502 1505 1507 1509 1511 1514 1515 1517 1518 1519 1521 1522 1523 1523 1524 1524 1525 1525 1525 1526 1526 1526 1527 1527 1527 1528 1528 1528 1528 1528
1469 1468 1468 1469 1470 1472 1474 1476 1479 1481 1484 1487 1490 1493 1496 1499 1501 1503 1506 1508 1509 1511 1512 1514 1515 1516 1517 1518 1519 1519 1520 1520 1520 1521 1521 1521 1522 1522 1522 1523 1523 1523 1523 1523
1471 1468 1467 1467 1468 1468 1470 1472 1474 1476 1479 1481 1484 1487 1490 1492 1495 1498 1500 1502 1503 1505 1507 1508 1510 1511 1512 1513 1514 1514 1515 1515 1515 1516 1516 1516 1516 1517 1517 1517 1518 1518 1518 1518
1474 1471 1469 1468 1467 1467 1468 1468 1470 1471 1474 1476 1479 1481 1484 1486 1489 1491 1494 1496 1497 1499 1501 1503 1504 1505 1506 1507 1508 1509 1509 1510 1510 1510 1510 1511 1511 1511 1512 1512 1512 1512 1512 1513
1477 1475 1472 1470 1469 1468 1468 1468 1468 1469 1470 1472 1474 1476 1478 1480 1483 1485 1487 1489 1491 1493 1495 1496 1498 1499 1500 1501 1502 1503 1503 1504 1504 1504 1505 1505 1505 1505 1506 1506 1506 1506 1507 1507